| time (UTC) | temp F | wind direction | speed MPH | gust MPH | rain 1hr in | rain 24hr in | rain mn in | humidity % | barometer mb |
| 20260510200118 | 71 | 108 | 0.0 | 1.0 | 0.00 | 0.23 | 0.00 | 69 | 1012.5 |
| 20260510195113 | 71 | 135 | 0.0 | 3.0 | 0.00 | 0.23 | 0.00 | 71 | 1012.4 |
| 20260510194046 | 70 | 96 | 0.0 | 3.0 | 0.00 | 0.24 | 0.00 | 70 | 1012.6 |
| 20260510193023 | 69 | 146 | 0.0 | 2.0 | 0.00 | 0.25 | 0.00 | 74 | 1012.6 |
| 20260510192047 | 68 | 127 | 0.0 | 2.0 | 0.00 | 0.27 | 0.00 | 75 | 1012.7 |
| 20260510191052 | 68 | 119 | 0.0 | 0.0 | 0.00 | 0.31 | 0.00 | 76 | 1012.8 |
| 20260510184925 | 67 | 311 | 0.0 | 3.0 | 0.00 | 0.33 | 0.00 | 74 | 1013.0 |
| 20260510183934 | 68 | 138 | 0.0 | 0.0 | 0.00 | 0.35 | 0.00 | 73 | 1012.9 |
| 20260510182955 | 68 | 122 | 0.0 | 0.0 | 0.00 | 0.35 | 0.00 | 74 | 1012.9 |
| 20260510181949 | 68 | 328 | 0.0 | 0.0 | 0.00 | 0.35 | 0.00 | 72 | 1012.8 |
| 20260510180953 | 69 | 104 | 0.0 | 0.0 | 0.00 | 0.35 | 0.00 | 73 | 1012.9 |
| 20260510175929 | 69 | 113 | 0.0 | 1.0 | 0.00 | 0.35 | 0.00 | 71 | 1012.8 |
| 20260510174859 | 70 | 53 | 0.0 | 0.0 | 0.00 | 0.35 | 0.00 | 72 | 1012.9 |
| 20260510173902 | 69 | 129 | 0.0 | 2.0 | 0.00 | 0.35 | 0.00 | 71 | 1012.8 |
| 20260510172837 | 69 | 30 | 0.0 | 2.0 | 0.00 | 0.35 | 0.00 | 71 | 1013.0 |
| 20260510171850 | 68 | 250 | 0.0 | 0.0 | 0.00 | 0.35 | 0.00 | 73 | 1013.0 |
| 20260510170816 | 68 | 26 | 0.0 | 2.0 | 0.00 | 0.35 | 0.00 | 72 | 1013.0 |
| 20260510165802 | 68 | 198 | 0.0 | 0.0 | 0.00 | 0.35 | 0.00 | 76 | 1012.8 |
| 20260510164820 | 68 | 153 | 0.0 | 2.0 | 0.00 | 0.35 | 0.00 | 74 | 1012.8 |
| 20260510163812 | 68 | 309 | 0.0 | 0.0 | 0.00 | 0.35 | 0.00 | 76 | 1013.0 |
| 20260510162826 | 67 | 128 | 0.0 | 0.0 | 0.00 | 0.35 | 0.00 | 76 | 1013.3 |
| 20260510161827 | 66 | 55 | 0.0 | 1.0 | 0.00 | 0.35 | 0.00 | 77 | 1013.3 |
| 20260510160826 | 66 | 43 | 0.0 | 3.0 | 0.00 | 0.35 | 0.00 | 80 | 1013.3 |
| 20260510155752 | 65 | 67 | 0.0 | 3.0 | 0.00 | 0.35 | 0.00 | 81 | 1013.2 |
| 20260510154740 | 64 | 135 | 0.0 | 0.0 | 0.00 | 0.35 | 0.00 | 83 | 1013.1 |
| 20260510153746 | 63 | 305 | 0.0 | 0.0 | 0.00 | 0.35 | 0.00 | 86 | 1013.2 |
| 20260510152712 | 63 | 136 | 0.0 | 3.0 | 0.00 | 0.35 | 0.00 | 85 | 1013.4 |
| 20260510151643 | 62 | 133 | 0.0 | 2.0 | 0.00 | 0.35 | 0.00 | 88 | 1013.6 |
| 20260510150623 | 61 | 352 | 0.0 | 0.0 | 0.00 | 0.35 | 0.00 | 89 | 1013.5 |
| 20260510144521 | 59 | 139 | 0.0 | 0.0 | 0.00 | 0.35 | 0.00 | 93 | 1013.6 |
| 20260510142355 | 58 | 325 | 0.0 | 0.0 | 0.00 | 0.35 | 0.00 | 96 | 1013.2 |
| 20260510141340 | 57 | 112 | 0.0 | 1.0 | 0.00 | 0.35 | 0.00 | 97 | 1013.3 |
| 20260510140341 | 55 | 302 | 0.0 | 1.0 | 0.00 | 0.35 | 0.00 | 98 | 1013.4 |
| 20260510135310 | 55 | 311 | 0.0 | 0.0 | 0.00 | 0.35 | 0.00 | 98 | 1013.4 |
| 20260510134259 | 54 | 253 | 0.0 | 0.0 | 0.00 | 0.35 | 0.00 | 98 | 1013.4 |
| 20260510133254 | 54 | 137 | 0.0 | 0.0 | 0.00 | 0.35 | 0.00 | 98 | 1013.5 |
| 20260510131056 | 53 | 135 | 0.0 | 0.0 | 0.00 | 0.36 | 0.00 | 98 | 1013.2 |
| 20260510130105 | 53 | 135 | 0.0 | 0.0 | 0.00 | 0.36 | 0.00 | 98 | 1013.1 |
| 20260510125040 | 53 | 135 | 0.0 | 0.0 | 0.00 | 0.36 | 0.00 | 98 | 1013.2 |
| 20260510124015 | 53 | 135 | 0.0 | 0.0 | 0.00 | 0.36 | 0.00 | 98 | 1013.1 |
| 20260510123011 | 52 | 135 | 0.0 | 0.0 | 0.00 | 0.36 | 0.00 | 98 | 1013.0 |
| 20260510114643 | 52 | 94 | 0.0 | 0.0 | 0.00 | 0.36 | 0.00 | 98 | 1012.6 |
| 20260510113614 | 51 | 94 | 0.0 | 0.0 | 0.00 | 0.36 | 0.00 | 98 | 1012.6 |
| 20260510110410 | 51 | 94 | 0.0 | 0.0 | 0.00 | 0.37 | 0.00 | 98 | 1012.2 |
| 20260510103142 | 50 | 94 | 0.0 | 0.0 | 0.00 | 0.37 | 0.00 | 98 | 1012.1 |
| 20260510102135 | 50 | 129 | 0.0 | 0.0 | 0.00 | 0.37 | 0.00 | 98 | 1011.9 |
| 20260510100043 | 50 | 129 | 0.0 | 0.0 | 0.00 | 0.37 | 0.00 | 98 | 1012.0 |
| 20260510095026 | 50 | 129 | 0.0 | 0.0 | 0.00 | 0.37 | 0.00 | 98 | 1011.9 |
| 20260510094012 | 50 | 128 | 0.0 | 0.0 | 0.00 | 0.37 | 0.00 | 98 | 1011.9 |
| 20260510093005 | 50 | 139 | 0.0 | 0.0 | 0.00 | 0.37 | 0.00 | 98 | 1012.0 |
| 20260510092005 | 50 | 143 | 0.0 | 0.0 | 0.00 | 0.37 | 0.00 | 98 | 1012.2 |
| 20260510090953 | 50 | 143 | 0.0 | 0.0 | 0.00 | 0.37 | 0.00 | 98 | 1012.1 |
| 20260510085936 | 50 | 143 | 0.0 | 0.0 | 0.00 | 0.37 | 0.00 | 97 | 1012.3 |
| 20260510084951 | 50 | 143 | 0.0 | 0.0 | 0.00 | 0.37 | 0.00 | 98 | 1012.4 |
| 20260510084002 | 51 | 115 | 0.0 | 0.0 | 0.00 | 0.37 | 0.00 | 98 | 1012.4 |
| 20260510080640 | 51 | 244 | 0.0 | 1.0 | 0.00 | 0.37 | 0.00 | 98 | 1012.5 |
| 20260510075640 | 51 | 226 | 0.0 | 0.0 | 0.00 | 0.37 | 0.00 | 98 | 1012.3 |
| 20260510074613 | 50 | 224 | 0.0 | 0.0 | 0.00 | 0.39 | 0.00 | 98 | 1012.1 |
| 20260510073553 | 50 | 210 | 0.0 | 0.0 | 0.00 | 0.39 | 0.00 | 98 | 1011.7 |
| 20260510072536 | 50 | 211 | 0.0 | 0.0 | 0.00 | 0.39 | 0.00 | 98 | 1011.7 |
| 20260510071601 | 50 | 211 | 0.0 | 0.0 | 0.00 | 0.39 | 0.00 | 98 | 1011.8 |
| 20260510070547 | 50 | 211 | 0.0 | 0.0 | 0.00 | 0.39 | 0.00 | 98 | 1011.8 |
| 20260510065524 | 50 | 211 | 0.0 | 0.0 | 0.00 | 0.39 | 0.00 | 97 | 1011.8 |
| 20260510064514 | 50 | 210 | 0.0 | 0.0 | 0.00 | 0.39 | 0.00 | 97 | 1012.0 |
| 20260510063513 | 50 | 210 | 0.0 | 0.0 | 0.00 | 0.39 | 0.00 | 97 | 1012.1 |
| 20260510062508 | 50 | 210 | 0.0 | 0.0 | 0.00 | 0.39 | 0.00 | 97 | 1012.1 |
| 20260510061506 | 50 | 211 | 0.0 | 0.0 | 0.00 | 0.39 | 0.00 | 97 | 1012.0 |
| 20260510060522 | 50 | 210 | 0.0 | 0.0 | 0.00 | 0.39 | 0.00 | 97 | 1011.9 |
| 20260510055452 | 50 | 148 | 0.0 | 0.0 | 0.00 | 0.39 | 0.00 | 97 | 1011.5 |
| 20260510054513 | 50 | 148 | 0.0 | 0.0 | 0.00 | 0.39 | 0.00 | 97 | 1011.4 |
| 20260510053511 | 50 | 148 | 0.0 | 0.0 | 0.00 | 0.39 | 0.00 | 97 | 1011.7 |
| 20260510052529 | 50 | 148 | 0.0 | 0.0 | 0.00 | 0.39 | 0.00 | 97 | 1011.7 |
| 20260510051549 | 50 | 148 | 0.0 | 0.0 | 0.00 | 0.39 | 0.00 | 97 | 1011.9 |
| 20260510050539 | 50 | 193 | 0.0 | 0.0 | 0.00 | 0.39 | 0.00 | 97 | 1011.9 |
| 20260510045516 | 50 | 201 | 0.0 | 0.0 | 0.00 | 0.39 | 0.00 | 97 | 1011.8 |
| 20260510044530 | 50 | 201 | 0.0 | 0.0 | 0.00 | 0.39 | 0.00 | 97 | 1011.8 |
| 20260510043517 | 51 | 212 | 0.0 | 0.0 | 0.00 | 0.39 | 0.00 | 97 | 1011.9 |
| 20260510042450 | 51 | 212 | 0.0 | 0.0 | 0.00 | 0.39 | 0.00 | 97 | 1011.9 |
| 20260510041436 | 51 | 131 | 0.0 | 0.0 | 0.00 | 0.39 | 0.00 | 97 | 1011.6 |
| 20260510040458 | 51 | 137 | 0.0 | 0.0 | 0.00 | 0.39 | 0.00 | 97 | 1011.6 |
| 20260510035445 | 51 | 137 | 0.0 | 0.0 | 0.00 | 0.39 | 0.40 | 97 | 1011.6 |
| 20260510034509 | 51 | 134 | 0.0 | 0.0 | 0.00 | 0.39 | 0.40 | 97 | 1011.3 |
| 20260510033452 | 51 | 134 | 0.0 | 0.0 | 0.00 | 0.39 | 0.40 | 97 | 1011.5 |
| 20260510032500 | 51 | 134 | 0.0 | 0.0 | 0.00 | 0.39 | 0.40 | 97 | 1011.6 |
| 20260510031507 | 51 | 134 | 0.0 | 0.0 | 0.00 | 0.39 | 0.40 | 97 | 1011.7 |
| 20260510025344 | 51 | 134 | 0.0 | 0.0 | 0.00 | 0.39 | 0.40 | 97 | 1011.7 |
| 20260510024341 | 52 | 132 | 0.0 | 0.0 | 0.00 | 0.39 | 0.40 | 97 | 1011.7 |
| 20260510023308 | 51 | 132 | 0.0 | 0.0 | 0.00 | 0.39 | 0.40 | 97 | 1011.8 |
| 20260510021230 | 51 | 132 | 0.0 | 0.0 | 0.00 | 0.39 | 0.40 | 97 | 1011.7 |
| 20260510015058 | 51 | 132 | 0.0 | 0.0 | 0.00 | 0.39 | 0.40 | 97 | 1011.6 |
| 20260510014121 | 50 | 132 | 0.0 | 0.0 | 0.00 | 0.39 | 0.40 | 97 | 1011.4 |
| 20260510013143 | 50 | 132 | 0.0 | 0.0 | 0.00 | 0.39 | 0.40 | 97 | 1011.5 |
| 20260510012133 | 51 | 132 | 0.0 | 0.0 | 0.00 | 0.39 | 0.40 | 96 | 1011.4 |
| 20260510011158 | 51 | 132 | 0.0 | 0.0 | 0.00 | 0.39 | 0.40 | 96 | 1011.4 |
| 20260510005024 | 51 | 132 | 0.0 | 0.0 | 0.00 | 0.39 | 0.40 | 96 | 1011.0 |
| 20260510002915 | 52 | 132 | 0.0 | 0.0 | 0.00 | 0.39 | 0.40 | 96 | 1010.9 |
| 20260510001940 | 52 | 132 | 0.0 | 0.0 | 0.00 | 0.39 | 0.40 | 96 | 1010.8 |
| 20260509234813 | 53 | 131 | 0.0 | 0.0 | 0.00 | 0.39 | 0.40 | 96 | 1010.7 |
| 20260509233833 | 53 | 131 | 0.0 | 0.0 | 0.00 | 0.39 | 0.40 | 96 | 1010.8 |
| 20260509232823 | 53 | 136 | 0.0 | 0.0 | 0.00 | 0.39 | 0.40 | 96 | 1010.9 |
| 20260509231832 | 53 | 126 | 0.0 | 0.0 | 0.00 | 0.39 | 0.40 | 96 | 1010.8 |
| 20260509230850 | 53 | 130 | 0.0 | 0.0 | 0.00 | 0.39 | 0.40 | 96 | 1010.8 |
| 20260509224740 | 53 | 130 | 0.0 | 0.0 | 0.00 | 0.39 | 0.40 | 96 | 1011.1 |
| 20260509223735 | 53 | 130 | 0.0 | 0.0 | 0.04 | 0.39 | 0.40 | 96 | 1011.0 |
| 20260509222735 | 53 | 130 | 0.0 | 0.0 | 0.09 | 0.39 | 0.40 | 96 | 1011.1 |
| 20260509221743 | 53 | 130 | 0.0 | 0.0 | 0.12 | 0.39 | 0.38 | 96 | 1011.3 |
| 20260509220747 | 53 | 131 | 0.0 | 0.0 | 0.15 | 0.36 | 0.36 | 96 | 1011.4 |
| 20260509215756 | 53 | 263 | 0.0 | 0.0 | 0.30 | 0.32 | 0.33 | 95 | 1011.7 |
| 20260509213629 | 53 | 263 | 0.0 | 0.0 | 0.23 | 0.26 | 0.27 | 95 | 1011.4 |
| 20260509212554 | 53 | 264 | 0.0 | 0.0 | 0.09 | 0.24 | 0.24 | 95 | 1011.8 |
| 20260509211603 | 54 | 91 | 0.0 | 0.0 | 0.08 | 0.21 | 0.21 | 95 | 1011.8 |
| 20260509210609 | 54 | 101 | 0.0 | 0.0 | 0.09 | 0.21 | 0.21 | 94 | 1012.0 |
| 20260509205608 | 55 | 96 | 0.0 | 0.0 | 0.00 | 0.19 | 0.19 | 95 | 1011.6 |
| 20260509203441 | 55 | 96 | 0.0 | 0.0 | 0.00 | 0.18 | 0.18 | 95 | 1011.7 |
| 20260509202417 | 55 | 86 | 0.0 | 0.0 | 0.00 | 0.16 | 0.17 | 94 | 1011.4 |